Погода в Новотуринском

Россия / Тюменская область     57°10′23″N   65°52′23″E
темп.,
°C
ветер,
м/с
пор.,
м/с
влажн.,
%
обл.,
%
осадки,
мм/ч
давл.,
гПа
погр.,
м
25 февраля, чт
чт2523:00−23ссв71292100 0.4 1017696
02:00−24с61292100 0.1 1019569
05:00−26с51191100 0.1 1020410
08:00−29ссз4109489 0.0 1021286
11:00−26ссз479380 0.0 1024322
14:00−22сз479285 0.0 1023464
17:00−21сз369392 0.1 1025294
20:00−25сз2398100 0.0 102621
26 февраля, пт
пт2623:00−27зсз2299100 0.1 102719
02:00−28зсз229946 0.0 102719
05:00−29з1210053 0.0 102819
08:00−30зюз1110034 0.0 102919
11:00−23ююз129219 0.0 1029204
14:00−19ю228887 0.0 1029387
17:00−19юв229593 0.0 102852
20:00−24ююв339890 0.0 102845
27 февраля, сб
сб2723:00−25ююв239949 0.0 102822
02:00−27ю349650 0.0 102848
05:00−29ююв349749 0.0 102776
08:00−31ююв369842 0.0 1027119
11:00−26юв479423 0.0 1026289
14:00−22юв58916 0.0 1024376
17:00−20юв59913 0.0 1023414
20:00−23вюв5129366 0.0 1021341
28 февраля, вс
вс2823:00−21вюв5109783 0.1 1019369
02:00−20вюв51097100 0.4 1017355
05:00−21в51097100 0.9 1015334
08:00−19в5996100 0.4 1013334
11:00−16в5894100 0.6 1013386
14:00−13всв5892100 0.2 1012454
17:00−12всв5894100 0.6 1011463
20:00−14св489599 0.3 1011290
1 марта, пн
пн123:00−15св479599 0.4 1012254
02:00−16ссв3696100 0.1 1012189
05:00−18с369797 0.2 1013156
08:00−21с349893 0.0 101481
11:00−17ссз239294 0.1 1014244
14:00−13сз238699 0.0 1014431
17:00−13зсз2393100 0.1 1014122
20:00−18з2396100 0.0 101330